Location: Lecco
(45.8566°N, 9.3977°E)
Time: 23:17:40
(UTC+02:00)

Transit 2A - All Passes

Search period start: 22 August 2019 00:00
Search period end: 01 September 2019 00:00
Orbit: 597 x 962 km, 66.7° (Epoch: 21 August)

Date Brightness Start Highest point End Pass type
(mag) Time Alt. Az. Time Alt. Az. Time Alt. Az.
22 Aug - 10:07:52 10° S 10:13:23 35° ESE 10:18:34 10° NE daylight
22 Aug - 11:50:41 10° SW 11:56:32 47° NW 12:01:56 10° NNE daylight
22 Aug - 13:38:11 10° WNW 13:41:03 14° NNW 13:43:49 10° N daylight
22 Aug - 17:11:05 10° N 17:12:48 12° NNE 17:14:28 10° NE daylight
22 Aug - 18:52:44 10° NNW 18:57:27 43° NE 19:01:45 10° ESE daylight
22 Aug - 20:36:28 10° NW 20:40:19 25° WSW 20:43:56 10° SSW daylight
23 Aug - 09:34:31 10° SSE 09:39:26 26° ESE 09:44:04 10° NE daylight
23 Aug - 11:16:17 10° SW 11:22:20 63° NW 11:27:54 10° NNE daylight
23 Aug - 13:02:52 10° WNW 13:06:34 17° NNW 13:10:05 10° N daylight
23 Aug - 18:18:45 10° NNW 18:23:10 31° NE 18:27:15 10° ESE daylight
23 Aug - 20:02:00 10° NW 20:06:23 37° WSW 20:10:27 10° S daylight
24 Aug - 09:01:32 10° SSE 09:05:30 18° ESE 09:09:19 10° ENE daylight
24 Aug - 10:42:02 10° SSW 10:48:11 84° WNW 10:53:50 10° NNE daylight
24 Aug - 12:27:45 10° W 12:32:08 21° NW 12:36:15 10° N daylight
24 Aug - 17:44:50 10° NNW 17:48:49 24° NE 17:52:33 10° E daylight
24 Aug - 19:27:41 10° NW 19:32:23 56° WSW 19:36:43 10° SSE daylight
25 Aug - 08:29:17 10° SE 08:31:38 12° ESE 08:33:56 10° E daylight
25 Aug - 10:07:58 10° SSW 10:14:04 72° ESE 10:19:42 10° NE daylight
25 Aug - 11:52:48 10° W 11:57:45 26° NW 12:02:22 10° NNE daylight
25 Aug - 17:10:58 10° N 17:14:25 18° NE 17:17:41 10° E daylight
25 Aug - 18:53:30 10° NW 18:58:20 84° WSW 19:02:46 10° SSE daylight
26 Aug - 09:34:05 10° S 09:40:00 52° ESE 09:45:29 10° NE daylight
26 Aug - 11:18:03 10° WSW 11:23:25 34° NW 11:28:26 10° NNE daylight
26 Aug - 13:07:01 10° NW 13:08:18 11° NNW 13:09:33 10° N daylight
26 Aug - 16:37:12 10° N 16:39:58 15° NNE 16:42:36 10° ENE daylight
26 Aug - 18:19:23 10° NNW 18:24:13 67° NE 18:28:38 10° SE daylight
26 Aug - 20:04:03 10° WNW 20:06:40 15° WSW 20:09:12 10° SW daylight
27 Aug - 09:00:24 10° S 09:05:58 38° ESE 09:11:10 10° NE daylight
27 Aug - 10:43:26 10° WSW 10:49:10 44° NW 10:54:27 10° NNE daylight
27 Aug - 12:31:11 10° NW 12:33:44 13° NNW 12:36:12 10° N daylight
27 Aug - 16:03:38 10° N 16:05:27 12° NNE 16:07:13 10° NE daylight
27 Aug - 17:45:20 10° NNW 17:50:01 46° NE 17:54:19 10° SE daylight
27 Aug - 19:29:11 10° WNW 19:32:49 23° WSW 19:36:15 10° SSW daylight
28 Aug - 08:26:59 10° SSE 08:32:00 27° ESE 08:36:43 10° NE daylight
28 Aug - 10:08:59 10° SW 10:14:57 59° NW 10:20:26 10° NNE daylight
28 Aug - 11:55:48 10° WNW 11:59:14 16° NNW 12:02:31 10° N daylight
28 Aug - 17:11:21 10° NNW 17:15:45 33° NE 17:19:51 10° ESE daylight
28 Aug - 18:54:40 10° NW 18:58:54 34° WSW 19:02:51 10° S daylight
29 Aug - 07:53:55 10° SSE 07:58:04 19° ESE 08:02:01 10° ENE daylight
29 Aug - 09:34:42 10° SW 09:40:48 79° WNW 09:46:22 10° NNE daylight
29 Aug - 11:20:38 10° W 11:24:48 20° NW 11:28:43 10° N daylight
29 Aug - 16:37:24 10° NNW 16:41:26 25° NE 16:45:12 10° E daylight
29 Aug - 18:20:19 10° NW 18:24:55 51° WSW 18:29:10 10° SSE daylight
30 Aug - 07:21:28 10° SE 07:24:11 13° ESE 07:26:50 10° ENE daylight
30 Aug - 09:00:36 10° SSW 09:06:40 77° ESE 09:12:15 10° NE daylight
30 Aug - 10:45:39 10° W 10:50:24 25° NW 10:54:50 10° NNE daylight
30 Aug - 16:03:33 10° N 16:07:03 19° NE 16:10:21 10° E daylight
30 Aug - 17:46:06 10° NW 17:50:53 77° WSW 17:55:16 10° SSE daylight
31 Aug - 08:26:40 10° SSW 08:32:36 56° ESE 08:38:03 10° NE daylight
31 Aug - 10:10:50 10° WSW 10:16:04 32° NW 10:20:55 10° NNE daylight
31 Aug - 12:00:40 10° NNW 12:00:59 10° NNW 12:01:17 10° NNW daylight
31 Aug - 15:29:47 10° N 15:32:36 15° NNE 15:35:19 10° ENE daylight
31 Aug - 17:11:58 10° NNW 17:16:46 72° NE 17:21:10 10° SE daylight
31 Aug - 18:56:56 10° WNW 18:59:09 13° WSW 19:01:20 10° SW daylight
